Location: Bittelbronn
(48.4454°N, 8.5870°E)
Time: 14:20:03
(UTC+00:00)

Cosmos 1953 - Pass Details

Date: 15 August 2024
Orbit: 504 x 523 km, 82.5° (Epoch: 18 September)

Event Time Altitude Azimuth Distance (km) Brightness Sun altitude
Exits shadow 03:36:09 - 222° (SW) 1,863 4.4 -7.3°
Reaches altitude 10° 03:36:29 10° 225° (SW) 1,738 4.2 -7.3°
Maximum altitude 03:39:52 30° 287° (WNW) 957 3.2 -6.8°
Drops below altitude 10° 03:43:19 10° 350° (N) 1,765 5.2 -6.3°
Sets 03:45:40 0° 1° (N) 2,663 6.3 -5.9°
